Overview Statistics Trail Chart Weather Telemetry Raw packets
 

This is the latest recevied weather packets stored in our database for station/object 9W2IJB-3. If no packets are shown the sender has not sent any weather packets the latest 10 day(s).

<< 1 2 3 4 5 >>
Time Temp. Humidity Pressure Rain* Wind** Luminosity Snow
1788586578 32.22° C 50% 1024.5 hPa - - - -
1788585409 32.22° C 50% 1024.7 hPa - - - -
1788585378 32.22° C 50% 1024.7 hPa - - - -
1788584178 32.78° C 50% 1025.1 hPa - - - -
1788582978 32.22° C 53% 1025.3 hPa - - - -
1788581777 32.22° C 55% 1025.5 hPa - - - -
1788580580 31.67° C 54% 1025.5 hPa - - - -
1788579377 30.56° C 58% 1025.7 hPa - - - -
1788578175 30.56° C 59% 1025.9 hPa - - - -
1788576974 30° C 60% 1026.1 hPa - - - -
1788575774 30° C 64% 1026 hPa - - - -
1788574577 28.89° C 66% 1025.9 hPa - - - -
1788573713 26.11° C 77% 1025.3 hPa - - - -
1788573374 28.33° C 69% 1025.8 hPa - - - -
1788572177 27.22° C 73% 1025.7 hPa - - - -
1788570977 26.11° C 77% 1025.6 hPa - - - -
1788570938 25.56° C 78% 1025.1 hPa - - - -
1788569776 26.11° C 77% 1025.3 hPa - - - -
1788568576 25.56° C 78% 1025.1 hPa - - - -
1788567419 25.56° C 78% 1024.8 hPa - - - -
1788567374 25.56° C 78% 1024.8 hPa - - - -
1788566907 25.56° C 77% 1024.5 hPa - - - -
1788566174 25.56° C 77% 1024.5 hPa - - - -
1788564974 25.56° C 77% 1024.2 hPa - - - -
1788563774 25.56° C 77% 1024.1 hPa - - - -

* Rain since midnight (hover to see other rain measurements)
** Current wind speed in m/s (hover to see current wind gust speed)